MST,Max TemperatureF,Mean TemperatureF,Min TemperatureF,Max Dew PointF,MeanDew PointF,Min DewpointF,Max Humidity, Mean Humidity, Min Humidity, Max Sea Level PressureIn, Mean Sea Level PressureIn, Min Sea Level PressureIn, Max VisibilityMiles, Mean VisibilityMiles, Min VisibilityMiles, Max Wind SpeedMPH, Mean Wind SpeedMPH, Max Gust SpeedMPH,PrecipitationIn, CloudCover, Events, WindDirDegrees
2012-2-1,44,32,19,16,14,9,68,49,31,30.18,29.98,29.89,20,16,15,12,7,,0.00,5,,302
2012-2-2,35,25,15,21,17,12,93,70,48,30.49,30.43,30.38,20,16,15,10,4,,0.00,4,,223
2012-2-3,48,34,19,21,17,12,74,57,30,30.54,30.44,30.38,20,16,15,10,6,,0.00,2,,189
2012-2-4,51,34,17,23,19,12,80,59,33,30.37,30.30,30.24,20,16,15,9,7,,0.00,0,,328
2012-2-5,42,30,17,25,20,12,80,65,49,30.58,30.43,30.35,20,16,15,10,8,,0.00,3,,355
2012-2-6,24,22,17,18,17,14,86,83,74,30.68,30.65,30.61,15,10,5,10,6,,0.00,7,Snow,142
2012-2-7,28,18,8,14,10,3,92,71,51,30.56,30.39,30.28,20,17,15,18,8,24,0.00,0,,165
2012-2-8,46,24,1,9,2,-2,85,45,17,30.29,30.17,30.10,15,15,15,17,8,20,0.00,1,Fog,322
2012-2-9,30,20,10,12,9,5,79,63,47,30.51,30.43,30.27,20,16,15,10,6,,0.00,1,,81
2012-2-10,15,10,6,10,6,3,85,79,73,30.57,30.52,30.26,15,8,2,14,9,17,0.00,7,Snow,145
2012-2-11,23,12,0,12,6,-6,85,74,59,30.45,30.29,30.16,20,16,15,13,5,,0.00,1,,155
2012-2-12,44,28,12,23,18,9,100,67,34,30.01,29.89,29.65,20,16,15,10,7,,0.00,6,,315
2012-2-13,35,28,21,28,24,18,93,82,64,29.93,29.85,29.76,20,10,1,22,8,28,0.00,7,Snow,14
2012-2-14,26,14,1,14,5,-2,92,71,40,30.10,29.98,29.93,20,16,15,8,4,,0.00,1,,317
2012-2-15,41,20,0,18,8,-6,92,63,39,30.22,30.17,30.12,15,15,15,12,6,,0.00,2,,296
2012-2-16,35,22,8,14,9,3,79,58,41,30.21,30.12,29.94,20,16,15,7,4,,0.00,3,,268
2012-2-17,35,26,14,21,17,12,93,66,48,30.27,30.14,29.82,15,15,15,14,7,,0.00,3,,177
2012-2-18,39,30,21,21,14,9,74,55,38,29.79,29.75,29.71,15,15,15,22,9,31,0.00,5,,267
2012-2-19,35,28,21,21,14,9,93,54,38,29.75,29.73,29.71,20,16,15,15,8,21,0.00,6,,273
2012-2-20,28,21,14,18,14,12,93,75,55,29.95,29.90,29.85,20,15,2,10,5,,0.00,5,Snow,195
2012-2-21,42,35,28,21,18,16,69,47,39,29.61,29.57,29.44,20,17,15,31,21,39,0.00,6,,282
2012-2-22,37,30,24,28,17,10,75,59,38,29.80,29.56,29.40,20,17,15,18,8,29,0.00,6,Snow,341
2012-2-23,32,24,17,23,18,12,86,73,51,30.17,30.07,29.99,20,14,6,12,6,18,0.00,6,Snow,351
2012-2-24,24,15,6,19,13,3,93,78,54,30.27,30.07,29.55,20,16,15,16,8,22,0.00,6,,144
2012-2-25,21,14,8,19,11,3,93,80,67,30.14,29.83,29.55,12,5,2,29,13,36,0.00,8,Snow,352
2012-2-26,6,3,0,3,0,-4,85,82,72,30.37,30.30,30.06,15,5,2,8,4,,0.00,7,Snow,23
2012-2-27,30,10,-11,12,0,-17,92,60,36,30.23,30.06,29.73,20,17,15,7,4,,0.00,2,,272
2012-2-28,32,18,5,18,4,-6,73,53,32,29.89,29.83,29.78,15,15,15,8,6,,0.00,4,,266
2012-2-29,33,24,15,16,10,3,64,55,44,29.66,29.61,29.50,20,18,15,10,5,,0.00,7,,347